Location: Ajisawe
(8.4333°N, 4.3833°E)
Time: 01:12:46
(UTC+00:00)

Courier 1B Rocket - Pass Details

Date: 02 May 2021
Orbit: 920 x 1202 km, 28.3° (Epoch: 13 May)

Event Time Altitude Azimuth Distance (km) Brightness Sun altitude
Rises 23:43:18 0° 262° (W) 3,796 - -65.9°
Reaches altitude 10° 23:47:23 10° 240° (WSW) 2,906 - -65.8°
Maximum altitude 23:51:09 15° 207° (SSW) 2,614 - -65.7°
Drops below altitude 10° 23:55:03 10° 175° (S) 3,014 - -65.6°
Sets 23:59:27 0° 153° (SSE) 4,026 - -65.4°
